{"data":{"norad_id":67599,"intl_designator":"2026-018L","name":"STARLINK-36582","alt_names":[],"object_type":"PAYLOAD","status":"ACTIVE","operator":null,"country":"US","launch_date":"2026-01-29","launch_site_code":"AFWTR","launch_vehicle":null,"mission":null,"orbit_class":"UNKNOWN","rcs_meters":null,"size_class":null,"mass_kg":null,"dimensions":null,"purposes":["comms"],"wikipedia_slug":null,"has_3d_model":false,"image_url":null,"decayed_at":null,"tle_current":{"epoch":"2026-09-19T09:50:22.651296Z","epoch_age_seconds":163160,"freshness":"FRESH","line1":"1 67599U 26018L   26262.40998439  .00013558  00000+0  42146-3 0  9998","line2":"2 67599  97.2857 325.8876 0000521 105.6802 254.4498 15.33450230 37074","mean_motion":15.3345023,"eccentricity":5.21e-5,"inclination_deg":97.2857,"raan_deg":325.8876,"arg_perigee_deg":105.6802,"mean_anomaly_deg":254.4498,"bstar":0.00042146,"rev_number":3707,"period_min":93.905884379436,"perigee_km":465.1710587956,"apogee_km":465.88416864835,"semimajor_km":6843.664613722,"source":"CELESTRAK","updated_at":"2026-09-20T09:00:43.603895Z"}}}